Weather History for KIBM - October, 2012

Change the Weather History Date:

Friday, October 12, 2012

  Actual Average (KSNY) Record (KSNY)
Temperature  
Mean Temperature 46 °F 52 °F  
Max Temperature 61 °F 66 °F 86 °F (1996)
Min Temperature 31 °F 37 °F 17 °F (1977)
Degree Days  
Heating Degree Days 19 14  
Month to date heating degree days 140  
Since 1 July heating degree days 280  
Cooling Degree Days 0 0  
Month to date cooling degree days 1  
Year to date cooling degree days 827  
Moisture  
Dew Point 32 °F    
Average Humidity 64    
Maximum Humidity 83    
Minimum Humidity 36    
Precipitation  
Precipitation 0.00 in 0.04 in 0.70 in (2008)
Month to date precipitation 0.48  
Year to date precipitation 16.89  
Sea Level Pressure  
Sea Level Pressure 30.06 in    
Wind  
Wind Speed 12 mph (South)    
Max Wind Speed 22 mph    
Max Gust Speed 24 mph    
Visibility 10 miles    
Events      
T = Trace of Precipitation, MM = Missing Value Source: NWS Daily Summary

Daily Weather History Graph

Daily Weather History Graph

Search for Another Location

Airport or City:

Trip Planner

Search our weather history database for the weather conditions in past years. The results will help you decide how hot, cold, wet, or windy it might be!

Date:

Astronomy

Oct. 12, 2012 Rise Set
Actual Time 8:03 AM CDT 7:17 PM CDT
Civil Twilight 7:35 AM CDT 7:45 PM CDT
Nautical Twilight 7:03 AM CDT 8:17 PM CDT
Astronomical Twilight 6:32 AM CDT 8:49 PM CDT
Moon 4:47 AM CDT (10/12) 5:30 PM CDT (10/12)
Length of Visible Light 12h 09m
Length of Day
11h 14m
Waning Crescent, 10% of the Moon is Illuminated
Oct 12
Waning Crescent
Oct 15
New
Oct 21
First Quarter
Oct 29
Full
Nov 6
Last Quarter

Hourly Weather History & Observations

Time (CDT) Temp. Windchill Dew Point Humidity Pressure Visibility Wind Dir Wind Speed Gust Speed Precip Events Conditions
12:15 AM 36.1 °F 29.3 °F 29.8 °F 78% 30.25 in 10.0 mi SSE 9.2 mph - N/A   Clear
12:35 AM 36.5 °F 28.2 °F 29.1 °F 75% 30.25 in 10.0 mi SSE 12.7 mph - N/A   Clear
12:55 AM 35.8 °F 26.9 °F 28.8 °F 76% 30.25 in 10.0 mi SSE 13.8 mph - N/A   Clear
1:15 AM 35.1 °F 25.5 °F 28.4 °F 77% 30.24 in 10.0 mi SSE 15.0 mph - N/A   Clear
1:35 AM 34.7 °F 25.9 °F 28.4 °F 78% 30.23 in 10.0 mi SSE 12.7 mph - N/A   Clear
1:55 AM 34.2 °F 25.7 °F 28.4 °F 79% 30.23 in 10.0 mi SSE 11.5 mph - N/A   Clear
2:15 AM 33.4 °F 24.3 °F 27.9 °F 80% 30.23 in 10.0 mi SSE 12.7 mph - N/A   Clear
2:35 AM 33.4 °F 24.8 °F 27.1 °F 78% 30.23 in 10.0 mi SSE 11.5 mph - N/A   Clear
3:15 AM 32.9 °F 24.7 °F 26.6 °F 78% 30.22 in 10.0 mi SSE 10.4 mph - N/A   Clear
3:35 AM 32.4 °F 24.6 °F 27.0 °F 80% 30.21 in 10.0 mi SSE 9.2 mph - N/A   Clear
3:55 AM 32.0 °F 23.6 °F 27.0 °F 82% 30.19 in 10.0 mi SSE 10.4 mph - N/A   Clear
4:15 AM 32.2 °F 22.3 °F 27.3 °F 82% 30.19 in 10.0 mi SSE 13.8 mph - N/A   Clear
4:35 AM 32.0 °F 22.5 °F 27.1 °F 82% 30.17 in 10.0 mi SSE 12.7 mph - N/A   Clear
4:55 AM 31.6 °F 22.1 °F 27.0 °F 83% 30.17 in 10.0 mi SSE 12.7 mph - N/A   Clear
5:15 AM 31.5 °F 22.3 °F 26.6 °F 82% 30.17 in 10.0 mi SSE 11.5 mph - N/A   Clear
5:55 AM 31.8 °F 20.2 °F 26.6 °F 81% 30.16 in 10.0 mi SSE 18.4 mph - N/A   Clear
6:15 AM 32.0 °F 21.2 °F 26.2 °F 79% 30.16 in 10.0 mi South 16.1 mph - N/A   Clear
6:35 AM 32.0 °F 21.6 °F 26.2 °F 79% 30.15 in 10.0 mi SSE 15.0 mph - N/A   Clear
6:55 AM 31.8 °F 22.3 °F 26.2 °F 80% 30.15 in 10.0 mi SSE 12.7 mph - N/A   Clear
7:15 AM 32.0 °F 23.0 °F 26.2 °F 79% 30.15 in 10.0 mi SSE 11.5 mph - N/A   Clear
7:35 AM 32.0 °F 23.0 °F 26.4 °F 80% 30.15 in 10.0 mi South 11.5 mph - N/A   Clear
7:55 AM 31.5 °F 22.3 °F 25.7 °F 79% 30.14 in 10.0 mi South 11.5 mph - N/A   Clear
8:15 AM 31.3 °F 20.3 °F 25.5 °F 79% 30.14 in 10.0 mi SSE 16.1 mph - N/A   Clear
8:35 AM 32.0 °F 21.2 °F 25.7 °F 78% 30.13 in 10.0 mi South 16.1 mph - N/A   Clear
9:15 AM 33.4 °F 22.3 °F 26.1 °F 74% 30.14 in 10.0 mi South 18.4 mph - N/A   Clear
9:35 AM 34.9 °F 24.9 °F 25.9 °F 70% 30.14 in 10.0 mi South 16.1 mph - N/A   Clear
9:55 AM 36.1 °F 25.5 °F 26.2 °F 67% 30.13 in 10.0 mi South 19.6 mph - N/A   Clear
10:15 AM 38.1 °F 28.8 °F 27.5 °F 66% 30.13 in 10.0 mi South 17.3 mph 23.0 mph N/A   Clear
10:35 AM 39.9 °F 32.1 °F 28.4 °F 63% 30.12 in 10.0 mi South 13.8 mph - N/A   Clear
10:55 AM 41.0 °F 32.8 °F 28.9 °F 62% 30.11 in 10.0 mi South 16.1 mph - N/A   Clear
11:15 AM 43.7 °F 36.9 °F 29.7 °F 58% 30.10 in 10.0 mi South 13.8 mph 18.4 mph N/A   Clear
11:35 AM 45.1 °F 38.8 °F 30.0 °F 55% 30.08 in 10.0 mi South 13.8 mph - N/A   Clear
12:15 PM 49.1 °F - 31.1 °F 50% 30.06 in 10.0 mi South 13.8 mph - N/A   Clear
12:35 PM 49.6 °F - 31.5 °F 50% 30.04 in 10.0 mi South 9.2 mph - N/A   Clear
12:55 PM 52.0 °F - 31.6 °F 46% 30.03 in 10.0 mi SSE 12.7 mph 19.6 mph N/A   Clear
1:35 PM 54.9 °F - 32.7 °F 43% 30.02 in 10.0 mi South 18.4 mph 24.2 mph N/A   Clear
1:55 PM 55.9 °F - 33.1 °F 42% 30.01 in 10.0 mi South 19.6 mph - N/A   Clear
2:15 PM 57.6 °F - 33.4 °F 40% 30.00 in 10.0 mi South 18.4 mph 23.0 mph N/A   Clear
2:35 PM 59.2 °F - 33.8 °F 38% 29.99 in 10.0 mi South 21.9 mph - N/A   Clear
2:55 PM 60.4 °F - 34.0 °F 37% 29.98 in 10.0 mi South 20.7 mph - N/A   Clear
3:15 PM 60.6 °F - 34.2 °F 37% 29.98 in 10.0 mi South 18.4 mph - N/A   Clear
3:35 PM 61.5 °F - 34.5 °F 36% 29.96 in 10.0 mi SSW 13.8 mph - N/A   Clear
3:55 PM 60.6 °F - 34.7 °F 38% 29.96 in 10.0 mi SSW 13.8 mph 18.4 mph N/A   Clear
4:15 PM 59.7 °F - 34.9 °F 39% 29.95 in 10.0 mi SSW 13.8 mph - N/A   Scattered Clouds
4:35 PM 59.0 °F - 35.2 °F 41% 29.93 in 10.0 mi SW 9.2 mph - N/A   Clear
5:15 PM 58.3 °F - 35.6 °F 43% 29.87 in 10.0 mi Calm Calm - N/A   Scattered Clouds
5:55 PM 60.1 °F - 36.1 °F 41% 29.89 in 10.0 mi SW 10.4 mph - N/A   Mostly Cloudy
6:15 PM 59.4 °F - 36.0 °F 42% 29.89 in 10.0 mi South 8.1 mph - N/A   Scattered Clouds
6:35 PM 59.2 °F - 36.1 °F 42% 29.89 in 10.0 mi SSW 8.1 mph - N/A   Clear
6:55 PM 56.3 °F - 36.7 °F 48% 29.89 in 10.0 mi South 8.1 mph - N/A   Scattered Clouds
7:15 PM 53.6 °F - 36.5 °F 52% 29.89 in 10.0 mi SSE 5.8 mph - N/A   Scattered Clouds
7:35 PM 52.3 °F - 36.7 °F 55% 29.89 in 10.0 mi SSE 8.1 mph - N/A   Clear
7:55 PM 52.0 °F - 36.7 °F 56% 29.89 in 10.0 mi South 10.4 mph - N/A   Clear
8:15 PM 52.0 °F - 36.9 °F 56% 29.90 in 10.0 mi SSE 10.4 mph - N/A   Clear
8:35 PM 53.2 °F - 37.0 °F 54% 29.93 in 10.0 mi SSW 15.0 mph - N/A   Mostly Cloudy
9:15 PM 51.8 °F - 42.8 °F 71% 29.89 in 10.0 mi West 6.9 mph - N/A   Scattered Clouds
9:35 PM 52.7 °F - 44.2 °F 73% 29.86 in 10.0 mi Calm Calm - N/A   Mostly Cloudy
9:55 PM 50.7 °F - 44.6 °F 80% 29.85 in 10.0 mi Calm Calm - N/A   Mostly Cloudy
10:15 PM 49.3 °F - 41.9 °F 76% 29.86 in 10.0 mi SE 5.8 mph - N/A   Scattered Clouds
10:37 PM 48.2 °F - 42.8 °F 82% 29.88 in 10.0 mi WSW 5.8 mph - N/A   Mostly Cloudy
11:37 PM 48.2 °F - 42.8 °F 82% 29.87 in 10.0 mi SSW 5.8 mph - N/A   Clear
11:58 PM 48.2 °F - 42.8 °F 82% 29.86 in 10.0 mi SSW 6.9 mph - N/A   Clear